Regional Weather Roundup
Issued by NWS Upton, NY

Current Version | Previous Version | Text Only | Print | Product List | Glossary On
Versions: 1 2 3 4 5 6 7 8 9 10 11 12 13 14 15 16 17 18 19 20 21 22 23 24 25 26 27
000
ASUS41 KOKX 061204
RWROKX

REGIONAL WEATHER ROUNDUP
NATIONAL WEATHER SERVICE NEW YORK NY
800 AM EDT FRI MAY 06 2016

NOTE: "FAIR" INDICATES FEW OR NO CLOUDS BELOW 12,000 FEET WITH NO
SIGNIFICANT WEATHER AND/OR OBSTRUCTIONS TO VISIBILITY.

NYZ071-072-176-178-NJZ106-104-061300-
NEW YORK CITY METRO AREA


CITY           SKY/WX    TMP DP  RH WIND       PRES   REMARKS
CENTRAL PARK   CLOUDY    48  45  89 NE14G20   29.71S
LAGUARDIA APRT LGT RAIN  51  49  92 NE17G28   29.69S
KENNEDY INTL   RAIN      48  46  93 NE14      29.69S FOG
NEWARK/LIBERTY LGT RAIN  49  47  93 NE10      29.69S FOG
BRNX BOT. GARD   N/A     48  46  93 NE5       29.69F
TETERBORO      LGT RAIN  50  45  83 N6        29.69S FOG
$$

NYZ177-179-078>081-061300-
LONG ISLAND NEW YORK

CITY           SKY/WX    TMP DP  RH WIND       PRES   REMARKS
FARMINGDALE    RAIN      47  45  93 NE13G21   29.69S FOG
ISLIP          LGT RAIN  47  44  90 NE15G24   29.69S
SHIRLEY        LGT RAIN  47  45  93 NE6       29.71S
RIVERHEAD        N/A     46  45  93 NE3       29.72R
WESTHAMPTON    LGT RAIN  43  43 100 NE13      29.72R
EAST HAMPTON   CLOUDY    47  43  86 NE14G20   29.72R
MONTAUK POINT  NOT AVBL
$$

NYZ052-065-067-061300-
HUDSON VALLEY

CITY           SKY/WX    TMP DP  RH WIND       PRES   REMARKS
WHITE PLAINS   RAIN      47  45  93 NE7       29.70R VSB 1
NEWBURGH       CLOUDY    48  48 100 NE12      29.73  FOG
MONTGOMERY     RAIN      50  48  93 NE7       29.71R FOG
POUGHKEEPSIE   LGT RAIN  51  48  89 NE3       29.73R FOG
ALBANY         CLOUDY    52  40  63 N9        29.76S
$$

NJZ001-105-106-008-010-013-015-019>022-104-061300-
NEW JERSEY

CITY           SKY/WX    TMP DP  RH WIND       PRES   REMARKS
NEWARK/LIBERTY LGT RAIN  49  47  93 NE10      29.69S FOG
TETERBORO      LGT RAIN  50  45  83 N6        29.69S FOG
CALDWELL       LGT RAIN  50  46  86 E8        29.70R
MORRISTOWN     DRIZZLE   50  48  93 NE7       29.70S
SOMERVILLE     CLOUDY    50  46  86 MISG      29.67R
SUSSEX         RAIN      49  46  90 NE9       29.71S FOG
ANDOVER          N/A     49  47  93 N7        29.69S
TRENTON        LGT RAIN  50  46  86 NE12G20   29.65F
MILLVILLE      RAIN      48  46  93 N5        29.67S FOG
ATLANTIC CITY  HVY RAIN  47  46  97 NE9       29.67R FOG
WRIGHTSTOWN    NOT AVBL
TOMS RIVER     CLOUDY    46  43  87 NE13G20   29.64S
BELMAR         LGT RAIN  47  46  97 NE18      29.66S
$$

PAZ047>061-062-071-061300-
EASTERN PENNSYLVANIA

CITY           SKY/WX    TMP DP  RH WIND       PRES   REMARKS
PHILADELPHIA   RAIN      51  46  83 NE16      29.66S
ALLENTOWN      RAIN      51  48  89 NE7       29.68F FOG
SCRANTON       LGT RAIN  52  44  74 NE12      29.70R
$$

CTZ002-004>006-009-010-012-RIZ004-006-007-MAZ004-011-015-061300-
SOUTHERN NEW ENGLAND
 IN CT

CITY           SKY/WX    TMP DP  RH WIND       PRES   REMARKS
BRADLEY INTL   LGT RAIN  50  44  80 NE6       29.75R
HARTFORD       CLOUDY    53  45  74 NE10      29.74S
DANBURY        LGT RAIN  48  45  89 NE6       29.73S FOG
WTRBRY/OXFORD  LGT RAIN  46  43  87 NE14G20   29.72S FOG
BRIDGEPORT     LGT RAIN  49  46  90 NE14      29.72R FOG
MERIDEN        LGT RAIN  50  44  80 N9        29.73R
NEW HAVEN      LGT RAIN  48  45  89 NE7       29.72R
CHESTER        CLOUDY    48  45  87 NE9G18    29.72S
GROTON         CLOUDY    50  44  80 NE18G25   29.73S
WILLIMANTIC    CLOUDY    51  43  74 NE10      29.75R

 IN RI

CITY           SKY/WX    TMP DP  RH WIND       PRES   REMARKS
PROVIDENCE     CLOUDY    49  43  80 N14       29.77R
BLOCK ISLAND   CLOUDY    47  43  86 NE15G23   29.75R
WESTERLY       CLOUDY    49  42  77 NE9G21    29.75R

 IN MA

CITY           SKY/WX    TMP DP  RH WIND       PRES   REMARKS
BOSTON         CLOUDY    49  44  83 NE8       29.79R
WORCESTER      CLOUDY    47  41  80 NE9G17    29.76R
WESTFIELD      LGT RAIN  51  43  74 E9        29.76R
PROVINCETOWN   CLOUDY    46  45  96 N15G21    29.78R
NANTUCKET      CLOUDY    48  44  86 N21       29.76R
$$

ANZ330-335-338-340-345-350-353-355-061300-
COASTAL MARINE OBSERVATIONS


STATION/POSITION TIME  SKY/WX   TEMP    WIND        PRES    VSBY  WAVE
                                AIR SEA DIR/SP/G                  HT/PER
                 (UTC)          (F)     (DEG/KT/KT) (MB)    (MI)  (FT/S)
NY HARB ENTRANCE 1050            48 50   40/ 16/ 19 1004.0          5/ 8
20S FIRE ISLAND  1050            47 48   50/ 21/ 25 1003.7          6/ 8
GREAT SOUTH BAY  1115            48 53   40/ 14/ 17   N/A
23 SSW MONTAUK P 1150            46 46   70/ 21/ 25 1005.3          6/ 7
15 E BARNEGAT LI 1122               49                N/A           7/ 8
HUDSON CANYON    1050            48 49              1001.7          7/ 8
KINGS POINT      1100            48 53              1005.3
EXECUTION ROCKS  NOT AVBL
CENTRAL LI SOUND NOT AVBL
EASTERN LI SOUND 1100            48 47   50/ 12/ 16   N/A
ROBBINS REEF     1100            50      50/ 17/ 22 1004.3
$$


>>>>>>>>>>>>>>>>>>>>>>>>>>>> KEY <<<<<<<<<<<<<<<<<<<<<<<<<<<
>                                                          <
>     SKY/WX - SKY CONDITION/PRESENT WEATHER               <
>     TMP    - TEMPERATURE IN FAHRENHEIT                   <
>     DP     - DEWPOINT IN FAHRENHEIT                      <
>     RH     - RELATIVE HUMIDITY IN PERCENT                <
>     WIND   - DIRECTION AND SPEED IN MPH                  <
>     PRES   - MEAN SEA LEVEL PRESSURE IN INCHES OF HG     <
>     WCI    - WIND CHILL INDEX                            <
>     VSB    - VISIBILITY IN MILES                         <
>     HX     - HEAT INDEX                                  <
>     TC     - TEMPERATURE IN CELSIUS                      <
>     VRB    - VARIABLE WIND DIRECTION                     <
>                                                          <
>>>>>>>>>>>>>>>>>>>>>>>>>>>> KEY <<<<<<<<<<<<<<<<<<<<<<<<<<<






USA.gov is the U.S. government's official web portal to all federal, state and local government web resources and services.